User: anonymous   Login
Location: Fort Wayne
(41.1310°N, 85.1290°W)
Time: 17:23:52
(UTC-05:00)
Language:

BREEZE-M DEB (TANK) - Orbit

View from above orbital plane
View from above orbital plane
View from above satellite
View from above satellite

Ground track
Ground track

The orbit data is extracted from the following two-line orbital elements,

1 27821U 03024B   16042.83267224 +.00015602 +00000-0 +13267-2 0  9991
2 27821 049.6064 354.6397 4978662 016.0137 355.2655 05.70455881252247
Epoch (UTC): 11 February 2016 19:59:02
Eccentricity: 0.4978662
inclination: 49.6064°
perigee height: 265 km
apogee height: 13440 km
right ascension of ascending node: 354.6397°
argument of perigee: 16.0137°
revolutions per day: 5.70455881
mean anomaly at epoch: 355.2655°
orbit number at epoch: 25224

The dashed part of the orbit path shows where the satellite is in the earth's shadow,  

DLR